Franklin, NC

8:47 AM EST on February 07, 2016 (GMT -0500)
Franklin

Weather History for K1A5 - December, 2013

Change the Weather History Date:

Sunday, December 22, 2013

  Actual Average (KTOC) Record (KTOC)
Temperature  
Mean Temperature 60 °F -  
Max Temperature 68 °F 51 °F 67 °F (2013)
Min Temperature 52 °F 33 °F 41 °F (2014)
Degree Days  
Heating Degree Days 6    
Growing Degree Days 10 (Base 50)    
Moisture  
Dew Point 55 °F    
Average Humidity 93    
Maximum Humidity 100    
Minimum Humidity 63    
Precipitation  
Precipitation 2.85 in - - ()
Sea Level Pressure  
Sea Level Pressure 30.05 in    
Wind  
Wind Speed 4 mph (SE)    
Max Wind Speed 12 mph    
Max Gust Speed 23 mph    
Visibility 6 miles    
Events Rain    
Averages and records for this station are not official NWS values.
T = Trace of Precipitation, MM = Missing Value Source: NWS Daily Summary

Daily Weather History Graph

Daily Weather History Graph

Search for Another Location

Airport or City:

Trip Planner

Search our weather history database for the weather conditions in past years. The results will help you decide how hot, cold, wet, or windy it might be!

Date:

Astronomy

Dec. 22, 2013 Rise Set
Actual Time 7:38 AM EST 5:25 PM EST
Civil Twilight 7:10 AM EST 5:54 PM EST
Nautical Twilight 6:38 AM EST 6:26 PM EST
Astronomical Twilight 6:07 AM EST 6:57 PM EST
Moon 10:27 PM EST (12/22) 10:44 AM EST (12/22)
Length of Visible Light 10h 43m
Length of Day
9h 47m
Waning Gibbous, 77% of the Moon is Illuminated
Dec 22
Waning Gibbous
Dec 25
Last Quarter
Jan 1
New
Jan 7
First Quarter
Jan 15
Full

Hourly Weather History & Observations

Time (EST) Temp. Dew Point Humidity Pressure Visibility Wind Dir Wind Speed Gust Speed Precip Events Conditions
12:15 AM 62.8 °F 61.3 °F 95% 29.98 in 7.0 mi ESE 5.8 mph - N/A   Drizzle
12:35 AM 62.6 °F 61.7 °F 97% 29.99 in 5.0 mi SE 5.8 mph - 0.01 in Rain Rain
12:55 AM 62.8 °F 61.3 °F 95% 29.99 in 7.0 mi East 6.9 mph - 0.01 in   Drizzle
1:15 AM 62.8 °F 61.3 °F 95% 29.99 in 10.0 mi ESE 9.2 mph - N/A Rain Light Rain
1:35 AM 64.0 °F 60.6 °F 89% 29.99 in 10.0 mi Calm Calm - N/A Rain Light Rain
1:55 AM 63.5 °F 60.6 °F 90% 29.99 in 10.0 mi East 5.8 mph - N/A   Overcast
2:15 AM 64.4 °F 59.0 °F 83% 29.98 in 10.0 mi East 5.8 mph 20.7 mph N/A   Overcast
2:35 AM 65.1 °F 57.6 °F 76% 29.98 in 10.0 mi Calm Calm - N/A   Overcast
2:55 AM 64.9 °F 57.0 °F 75% 29.97 in 10.0 mi East 8.1 mph - N/A   Overcast
3:15 AM 66.6 °F 55.9 °F 69% 29.98 in 10.0 mi SSE 6.9 mph 18.4 mph N/A   Overcast
3:35 AM 67.6 °F 55.4 °F 65% 29.97 in 10.0 mi South 11.5 mph 23.0 mph N/A Rain Light Rain
3:55 AM 67.8 °F 54.9 °F 63% 29.97 in 10.0 mi South 9.2 mph 16.1 mph N/A   Overcast
4:15 AM 67.6 °F 55.4 °F 65% 29.95 in 10.0 mi South 9.2 mph 18.4 mph N/A Rain Light Rain
4:35 AM 67.3 °F 55.9 °F 67% 29.96 in 10.0 mi SE 5.8 mph 17.3 mph N/A Rain Light Rain
4:55 AM 66.2 °F 56.3 °F 70% 29.96 in 10.0 mi SE 5.8 mph - N/A   Overcast
5:15 AM 65.8 °F 56.5 °F 72% 29.97 in 10.0 mi SE 9.2 mph - N/A   Drizzle
5:35 AM 66.2 °F 56.5 °F 71% 29.98 in 10.0 mi SSE 6.9 mph - N/A Rain Rain
5:55 AM 64.4 °F 57.6 °F 78% 29.98 in 7.0 mi South 10.4 mph 18.4 mph 0.01 in   Heavy Drizzle
6:15 AM 63.0 °F 58.3 °F 85% 29.98 in 7.0 mi ESE 3.5 mph - N/A   Drizzle
6:35 AM 62.6 °F 58.5 °F 86% 29.98 in 10.0 mi SE 8.1 mph - N/A Rain Light Rain
6:55 AM 62.6 °F 58.5 °F 86% 29.98 in 10.0 mi South 6.9 mph - N/A   Overcast
7:15 AM 57.6 °F 54.7 °F 90% 30.02 in 2.5 mi NNW 8.1 mph - 0.20 in Rain Heavy Rain
7:35 AM 56.5 °F 54.0 °F 91% 30.04 in 5.0 mi SW 4.6 mph - 0.26 in Rain Rain
7:55 AM 55.9 °F 54.5 °F 95% 30.06 in 7.0 mi Calm Calm - 0.31 in Rain Rain
8:15 AM 55.4 °F 54.9 °F 98% 30.07 in 5.0 mi Calm Calm - 0.04 in Rain Heavy Rain
8:35 AM 55.2 °F 55.0 °F 99% 30.06 in 4.0 mi ESE 3.5 mph - 0.16 in Rain Heavy Rain
8:55 AM 55.0 °F 54.9 °F 99% 30.07 in 3.0 mi Calm Calm - 0.25 in Rain Heavy Rain
9:15 AM 54.7 °F 54.7 °F 100% 30.08 in 3.0 mi Calm Calm - 0.13 in Rain Heavy Rain
9:35 AM 54.7 °F 54.7 °F 100% 30.09 in 4.0 mi Calm Calm - 0.23 in Rain Heavy Rain
9:55 AM 54.9 °F 54.9 °F 100% 30.11 in 2.5 mi Calm Calm - 0.36 in Rain Heavy Rain
10:15 AM 54.5 °F 54.5 °F 100% 30.12 in 1.5 mi Calm Calm - 0.12 in Rain Heavy Rain
10:35 AM 54.5 °F 54.5 °F 100% 30.09 in 2.5 mi Calm Calm - 0.22 in Rain Heavy Rain
10:55 AM 54.1 °F 54.0 °F 99% 30.10 in 1.5 mi Calm Calm - 0.33 in Rain Heavy Rain
11:15 AM 54.0 °F 54.0 °F 100% 30.11 in 1.8 mi Calm Calm - 0.10 in Rain Heavy Rain
11:35 AM 54.0 °F 54.0 °F 100% 30.10 in 2.5 mi Calm Calm - 0.21 in Rain Heavy Rain
11:55 AM 54.0 °F 54.0 °F 100% 30.10 in 2.0 mi Calm Calm - 0.30 in Rain Rain
12:15 PM 53.8 °F 53.6 °F 99% 30.09 in 3.0 mi Calm Calm - 0.05 in Rain Rain
12:35 PM 53.6 °F 53.6 °F 100% 30.09 in 2.5 mi Calm Calm - 0.15 in Rain Heavy Rain
12:55 PM 53.6 °F 53.6 °F 100% 30.07 in 1.5 mi Calm Calm - 0.27 in Rain Heavy Rain
1:15 PM 53.4 °F 53.1 °F 99% 30.05 in 2.0 mi Calm Calm - 0.07 in Rain Rain
1:35 PM 53.2 °F 53.1 °F 99% 30.04 in 5.0 mi Calm Calm - 0.11 in Rain Rain
1:55 PM 53.2 °F 53.1 °F 99% 30.04 in 5.0 mi Calm Calm - 0.15 in Rain Rain
2:15 PM 53.1 °F 53.1 °F 100% 30.04 in 7.0 mi Calm Calm - 0.02 in Rain Light Rain
2:35 PM 53.1 °F 53.1 °F 100% 30.06 in 10.0 mi Calm Calm - 0.03 in Rain Rain
2:55 PM 53.1 °F 53.1 °F 100% 30.06 in 7.0 mi Calm Calm - 0.05 in Rain Rain
3:15 PM 53.2 °F 53.2 °F 100% 30.06 in 5.0 mi Calm Calm - 0.04 in Rain Rain
3:35 PM 53.2 °F 53.2 °F 100% 30.06 in 7.0 mi ESE 3.5 mph - 0.08 in Rain Rain
3:55 PM 53.2 °F 53.2 °F 100% 30.06 in 7.0 mi Calm Calm - 0.11 in Rain Light Rain
4:15 PM 53.4 °F 53.4 °F 100% 30.06 in 7.0 mi Calm Calm - 0.01 in Rain Light Rain
4:35 PM 53.1 °F 53.1 °F 100% 30.06 in 7.0 mi Calm Calm - 0.02 in Rain Light Rain
4:55 PM 53.6 °F 53.6 °F 100% 30.06 in 10.0 mi Calm Calm - 0.04 in Rain Light Rain
5:15 PM 53.2 °F 53.2 °F 100% 30.05 in 7.0 mi East 3.5 mph - 0.01 in Rain Light Rain
5:35 PM 53.4 °F 53.4 °F 100% 30.08 in 10.0 mi Calm Calm - 0.03 in Rain Light Rain
5:55 PM 53.6 °F 53.6 °F 100% 30.05 in 5.0 mi ESE 4.6 mph - 0.06 in Rain Rain
6:15 PM 54.0 °F 54.0 °F 100% 30.06 in 5.0 mi Calm Calm - 0.05 in Rain Rain
6:35 PM 53.6 °F 53.6 °F 100% 30.07 in 7.0 mi Calm Calm - 0.07 in Rain Rain
6:55 PM 53.1 °F 53.1 °F 100% 30.07 in 7.0 mi Calm Calm - 0.08 in Rain Rain
7:15 PM 53.1 °F 53.1 °F 100% 30.07 in 5.0 mi Calm Calm - 0.04 in Rain Rain
7:35 PM 52.7 °F 52.7 °F 100% 30.08 in 5.0 mi Calm Calm - 0.06 in Rain Rain
7:55 PM 52.7 °F 52.7 °F 100% 30.09 in 5.0 mi Calm Calm - 0.08 in Rain Light Rain
8:15 PM 52.7 °F 52.3 °F 99% 30.07 in 5.0 mi Calm Calm - 0.02 in Rain Light Rain
8:35 PM 52.2 °F 52.0 °F 99% 30.07 in 3.0 mi Calm Calm - 0.04 in Rain Rain
8:55 PM 52.2 °F 51.8 °F 99% 30.08 in 2.5 mi Calm Calm - 0.07 in Rain Rain
9:15 PM 52.3 °F 51.8 °F 98% 30.06 in 5.0 mi Calm Calm - 0.02 in Rain Rain
9:35 PM 52.7 °F 52.0 °F 97% 30.08 in 4.0 mi Calm Calm - 0.07 in Rain Heavy Rain
9:55 PM 52.7 °F 52.0 °F 97% 30.07 in 4.0 mi Calm Calm - 0.13 in Rain Rain
10:15 PM 52.3 °F 51.8 °F 98% 30.12 in 5.0 mi West 8.1 mph - 0.06 in Rain Heavy Rain
10:35 PM 52.3 °F 51.8 °F 98% 30.09 in 4.0 mi Calm Calm - 0.14 in Rain Rain
10:55 PM 52.0 °F 51.3 °F 97% 30.10 in 5.0 mi Calm Calm - 0.18 in Rain Heavy Rain
11:15 PM 52.2 °F 51.4 °F 97% 30.08 in 5.0 mi Calm Calm - 0.04 in Rain Rain
11:35 PM 52.0 °F 51.3 °F 97% 30.09 in 10.0 mi NW 4.6 mph - 0.05 in Rain Light Rain
11:55 PM 52.3 °F 51.6 °F 97% 30.11 in 10.0 mi Calm Calm - 0.06 in Rain Rain